Weather History for Fort Wayne, IN

Change the Weather History Date:

Thursday, March 22, 2012

  Actual Average Record
Temperature  
Mean Temperature 69 °F 41 °F  
Max Temperature 83 °F 51 °F 83 °F (1907)
Min Temperature 55 °F 31 °F 10 °F (1906)
Degree Days  
Heating Degree Days 0 24  
Month to date heating degree days 298 625  
Since 1 July heating degree days 4283 5223  
Cooling Degree Days 4 0  
Month to date cooling degree days 27 0  
Year to date cooling degree days 27 0  
Growing Degree Days 18 (Base 50)    
Moisture  
Dew Point 55 °F    
Average Humidity 64    
Maximum Humidity 86    
Minimum Humidity 42    
Precipitation  
Precipitation T in 0.09 in 0.95 in (1898)
Month to date precipitation 0.98 1.81  
Year to date precipitation 6.08 6.11  
Snow  
Snow 0.00 in 0.10 in 5.20 in (1977)
Month to date snowfall 0.3 3.4  
Since 1 July snowfall 32.2 31.8  
Snow Depth 0.00 in    
Sea Level Pressure  
Sea Level Pressure 30.10 in    
Wind  
Wind Speed 4 mph (SSE)    
Max Wind Speed 15 mph    
Max Gust Speed 18 mph    
Visibility 10 miles    
Events      
T = Trace of Precipitation, MM = Missing Value Source: NWS Daily Summary

Daily Weather History Graph

Daily Weather History Graph

Search for Another Location

Airport:

Trip Planner

Search our weather history database for the weather conditions in past years. The results will help you decide how hot, cold, wet, or windy it might be!

Date:

Astronomy

Mar. 22, 2012 Rise Set
Actual Time 7:39 AM EDT 7:55 PM EDT
Civil Twilight 7:12 AM EDT 8:23 PM EDT
Nautical Twilight 6:40 AM EDT 8:55 PM EDT
Astronomical Twilight 6:07 AM EDT 9:28 PM EDT
Moon 7:18 AM EDT (3/22) 8:20 PM EDT (3/22)
Length of Visible Light 13h 10m
Length of Day
12h 15m
Waxing Crescent, 0% of the Moon is Illuminated
Mar 22
Waxing Crescent
Mar 30
First Quarter
Apr 6
Full
Apr 13
Last Quarter
Apr 21
New

Hourly Weather History & Observations

Time (EDT) Temp. Heat Index Dew Point Humidity Pressure Visibility Wind Dir Wind Speed Gust Speed Precip Events Conditions
12:54 AM 63.0 °F - 54.0 °F 72% 30.09 in 10.0 mi SE 3.5 mph - N/A   Scattered Clouds
1:54 AM 62.1 °F - 53.1 °F 72% 30.09 in 10.0 mi South 4.6 mph - N/A   Scattered Clouds
2:54 AM 62.1 °F - 53.1 °F 72% 30.10 in 10.0 mi Calm Calm - N/A   Partly Cloudy
3:54 AM 59.0 °F - 52.0 °F 78% 30.11 in 10.0 mi Calm Calm - N/A   Scattered Clouds
4:54 AM 60.1 °F - 53.1 °F 78% 30.10 in 10.0 mi Calm Calm - N/A   Partly Cloudy
5:54 AM 55.9 °F - 52.0 °F 87% 30.12 in 8.0 mi ENE 3.5 mph - N/A   Scattered Clouds
6:54 AM 55.9 °F - 52.0 °F 87% 30.13 in 10.0 mi Calm Calm - N/A   Scattered Clouds
7:54 AM 55.9 °F - 52.0 °F 87% 30.14 in 8.0 mi Calm Calm - N/A   Scattered Clouds
8:54 AM 61.0 °F - 55.9 °F 83% 30.15 in 8.0 mi Calm Calm - N/A   Scattered Clouds
9:54 AM 69.1 °F - 57.9 °F 68% 30.14 in 10.0 mi Calm Calm - N/A   Scattered Clouds
10:54 AM 75.9 °F - 55.9 °F 50% 30.15 in 10.0 mi SW 4.6 mph - N/A   Scattered Clouds
11:54 AM 79.0 °F - 55.0 °F 44% 30.14 in 10.0 mi Variable 3.5 mph - N/A   Scattered Clouds
12:54 PM 79.0 °F - 55.9 °F 45% 30.13 in 10.0 mi South 5.8 mph - N/A   Scattered Clouds
1:54 PM 81.0 °F 81.0 °F 57.0 °F 44% 30.12 in 10.0 mi South 9.2 mph - N/A   Scattered Clouds
2:54 PM 81.0 °F 80.7 °F 55.0 °F 41% 30.09 in 10.0 mi South 9.2 mph - N/A   Mostly Cloudy
3:54 PM 80.1 °F 80.2 °F 55.9 °F 43% 30.07 in 10.0 mi South 10.4 mph - N/A   Mostly Cloudy
4:54 PM 81.0 °F 80.7 °F 55.0 °F 41% 30.06 in 10.0 mi South 10.4 mph - N/A   Mostly Cloudy
5:54 PM 78.1 °F - 57.9 °F 50% 30.06 in 10.0 mi South 8.1 mph - N/A   Mostly Cloudy
6:54 PM 75.0 °F - 62.1 °F 64% 30.05 in 10.0 mi ESE 4.6 mph - 0.00 in   Mostly Cloudy
7:54 PM 70.0 °F - 60.1 °F 71% 30.06 in 10.0 mi ESE 4.6 mph - N/A   Mostly Cloudy
8:54 PM 70.0 °F - 57.0 °F 63% 30.06 in 10.0 mi ESE 5.8 mph - N/A   Mostly Cloudy
9:54 PM 66.0 °F - 57.0 °F 73% 30.06 in 10.0 mi ESE 4.6 mph - N/A   Scattered Clouds
10:54 PM 68.0 °F - 55.9 °F 65% 30.06 in 10.0 mi SSE 4.6 mph - N/A   Scattered Clouds
11:54 PM 64.9 °F - 55.9 °F 73% 30.05 in 10.0 mi Calm Calm - N/A   Mostly Cloudy